Hourly Data Report for October 28, 2013

All times are specified in Local Standard Time (LST). Add 1 hour to adjust for Daylight Saving Time where and when it is observed.

ARVIAT A
NUNAVUT

61°05'38.000" N
94°04'18.000" W
10.40 m
2300427
71174
YEK

Download Data

Hourly Data (October 2013)
Hourly Data Report for October 28, 2013
Temp Definition
°C
Dew Point Temp Definition
°C
Rel Hum Definition
%
Wind Dir Definition
10's deg

Wind Spd Definition
km/h
Visibility Definition
km
Stn Press Definition
kPa
Hmdx Definition


Wind Chill Definition


Weather Definition


TIME
00:00 Legend Double Dagger -10.4 -12.2 87 30 32 16.1 102.22   -20 LegendNANA
01:00 Legend Double Dagger -10.3 -12.1 87 30 35 16.1 102.20   -21 LegendNANA
02:00 Legend Double Dagger -10.2 -12.0 87 30 32 16.1 102.16   -20 LegendNANA
03:00 Legend Double Dagger -10.0 -11.9 86 31 33 16.1 102.12   -20 LegendNANA
04:00 Legend Double Dagger -10.0 -11.9 86 30 32 16.1 102.07   -20 LegendNANA
05:00 Legend Double Dagger -9.8 -11.7 86 30 39 16.1 102.04   -20 LegendNANA
06:00 Legend Double Dagger -10.2 -12.3 85 30 39 16.1 102.02   -21 LegendNANA
07:00 Legend Double Dagger -10.4 -12.6 84 30 37 16.1 101.99   -21 LegendNANA
08:00 Legend Double Dagger -10.6 -12.7 85 30 35 16.1 101.94   -21 LegendNANA
09:00 Legend Double Dagger -10.7 -12.5 87 33 46 1.2 101.94   -22 LegendNANA
10:00 Legend Double Dagger -10.5 -13.3 80 33 41 16.1 101.98   -22 LegendNANA
11:00 Legend Double Dagger -10.4 -13.3 80 32 37 16.1 101.97   -21 LegendNANA
12:00 Legend Double Dagger -10.0 -13.3 77 32 35 16.1 101.99   -20 LegendNANA
13:00 Legend Double Dagger -10.0 -12.5 82 32 50 4.8 101.93   -22 LegendNANA
14:00 Legend Double Dagger -10.3 -12.8 82 32 50 4.8 101.91   -22 LegendNANA
15:00 Legend Double Dagger -10.6 -13.0 83 32 39 16.1 101.90   -21 LegendNANA
16:00 Legend Double Dagger -11.4 -13.4 85 31 37 16.1 101.90   -22 LegendNANA
17:00 Legend Double Dagger -12.1 -14.6 82 32 41 16.1 101.89   -24 LegendNANA
18:00 Legend Double Dagger -12.6 -14.9 83 31 30 16.1 101.89   -23 LegendNANA
19:00 Legend Double Dagger -12.8 -15.1 83 31 26 16.1 101.86   -23 LegendNANA
20:00 Legend Double Dagger -12.4 -14.6 84 30 22 16.1 101.84   -21 LegendNANA
21:00 Legend Double Dagger -11.7 -13.7 85 30 18 16.1 101.81   -20 LegendNANA
22:00 Legend Double Dagger -11.4 -13.4 85 32 22 16.1 101.74   -20 LegendNANA
23:00 Legend Double Dagger -11.0 -12.9 86 32 11 16.1 101.67   -17 LegendNANA

Notes on Data Quality.

Legend

  • E = Estimated
  • M = Missing
  • NA = Not Available
  • ‡ = Partner data that is not subject to review by the National Climate Archives
Date modified: